Location: Brede
(50.9167°N, 0.6000°E)
Time: 17:47:02
(UTC+00:00)

SL-08 R/B - Pass Details

Date: 08 August 2020
Orbit: 673 x 740 km, 98.4° (Epoch: 23 September)

Event Time Altitude Azimuth Distance (km) Brightness Sun altitude
Exits shadow 03:28:36 - 196° (SSW) 2,495 5.7 -9.5°
Reaches altitude 10° 03:29:18 10° 200° (SSW) 2,242 5.4 -9.4°
Maximum altitude 03:33:46 33° 264° (W) 1,223 4.2 -8.8°
Drops below altitude 10° 03:38:16 10° 329° (NNW) 2,260 6.0 -8.3°
Sets 03:40:47 0° 339° (NNW) 3,185 6.9 -8.0°
